EW3668 Weather Reports


time (UTC)temp
C
wind
direction
speed
KPH
gust
KPH
rain 1hr
cm
rain 24hr
cm
rain mn
cm
humidity
%
barometer
mb
20260508044503 12 82 0.0 0.0 0.00 1.42 1.12 85 1013.9
20260508043035 12 82 0.0 0.0 0.00 1.42 1.12 85 1013.9
20260508041539 12 82 0.0 0.0 0.00 1.42 1.12 85 1013.9
20260508034605 12 82 0.0 0.0 0.00 1.55 1.12 85 1013.6
20260508033035 12 82 0.0 0.0 0.00 1.55 1.12 85 1013.3
20260508031525 12 82 0.0 0.0 0.00 1.55 1.12 85 1013.1
20260508030022 12 82 0.0 0.0 0.00 1.55 1.12 85 1013.1
20260508024522 12 82 0.0 0.0 0.00 1.55 1.12 85 1012.9
20260508023034 12 82 0.0 0.0 0.00 1.55 1.12 85 1012.9
20260508021518 12 82 0.0 0.0 0.00 1.55 1.12 86 1012.7
20260508020015 12 82 0.0 0.0 0.00 1.55 1.12 86 1012.7
20260508014514 12 82 0.0 0.0 0.00 1.55 1.12 87 1012.6
20260508013012 12 82 0.0 0.0 0.00 1.55 1.12 89 1012.0
20260508011510 12 82 0.0 1.6 0.00 1.55 1.12 89 1011.5
20260508010013 12 82 0.0 0.0 0.00 1.55 1.12 88 1011.7
20260508004517 12 82 0.0 1.6 0.00 1.55 1.12 91 1011.9
20260508003007 12 82 0.0 1.6 0.00 1.55 1.12 90 1011.2
20260508001506 12 339 0.0 0.0 0.00 1.55 1.12 89 1011.4
20260508000004 12 339 0.0 1.6 0.00 1.55 1.12 89 1011.2
20260507234501 13 87 0.0 1.6 0.00 1.55 1.12 91 1010.7
20260507233002 13 76 0.0 3.2 0.00 1.55 1.12 93 1010.5
20260507231602 13 77 0.0 4.8 0.00 1.55 1.12 93 1010.2
20260507230102 13 54 0.0 3.2 0.03 1.55 1.12 93 1010.4
20260507224606 13 37 0.0 1.6 0.03 1.55 1.12 90 1010.4
20260507223100 13 27 0.0 1.6 0.03 1.55 1.12 89 1010.1
20260507221556 13 60 0.0 1.6 0.03 1.55 1.12 89 1010.0
20260507220056 13 51 0.0 4.8 0.00 1.52 1.09 90 1010.1
20260507214555 13 84 0.0 3.2 0.00 1.52 1.09 89 1010.3
20260507213054 13 81 0.0 3.2 0.00 1.52 1.09 92 1010.1
20260507211553 13 352 0.0 3.2 0.00 1.52 1.09 91 1010.1
20260507210115 13 39 0.0 4.8 0.00 1.52 1.09 91 1009.9
20260507204555 13 77 0.0 1.6 0.00 1.52 1.09 89 1009.4
20260507203046 13 306 0.0 4.8 0.00 1.52 1.09 89 1009.6
20260507201544 14 306 0.0 3.2 0.00 1.52 1.09 89 1009.3
20260507200055 14 257 0.0 1.6 0.00 1.63 1.09 89 1009.3
20260507194541 14 74 0.0 1.6 0.00 1.63 1.09 89 1009.5
20260507193104 14 27 0.0 3.2 0.00 1.63 1.09 85 1009.3
20260507191547 14 46 0.0 3.2 0.03 1.63 1.09 85 1009.3
20260507190041 14 12 0.0 1.6 0.03 2.03 1.09 85 1009.7
20260507184507 15 329 0.0 3.2 0.05 2.03 1.09 86 1008.9
20260507183006 15 21 0.0 3.2 0.10 2.03 1.09 87 1009.4
20260507181600 15 309 0.0 1.6 0.08 2.01 1.07 87 1008.9
20260507180059 15 81 0.0 3.2 0.08 2.01 1.07 93 1008.8
20260507174600 16 302 0.0 6.4 0.05 1.98 1.04 97 1009.2
20260507173121 20 35 1.6 3.2 0.00 1.93 0.99 87 1009.1
20260507171548 20 222 0.0 0.0 0.00 1.93 0.99 86 1008.2
20260507170049 21 221 0.0 1.6 0.03 1.93 0.99 91 1007.9
20260507164548 21 253 0.0 0.0 0.05 1.93 0.99 85 1008.2
20260507163039 20 252 0.0 3.2 0.05 1.93 0.99 87 1008.6
20260507161535 20 289 0.0 3.2 0.05 1.93 0.99 80 1009.4
20260507160056 20 243 0.0 1.6 0.05 1.91 0.97 81 1009.8
20260507154535 20 298 0.0 3.2 0.05 1.88 0.94 82 1009.7
20260507153035 20 208 0.0 3.2 0.08 1.88 0.94 81 1009.1
20260507151528 20 221 0.0 3.2 0.13 1.88 0.94 80 1009.3
20260507150027 20 315 0.0 3.2 0.13 1.85 0.91 80 1009.6
20260507144541 20 272 0.0 4.8 0.13 1.83 0.89 80 1009.7
20260507143024 20 349 0.0 4.8 0.10 1.78 0.84 80 1009.8
20260507141526 19 304 0.0 1.6 0.18 1.75 0.81 80 1009.7
20260507140019 19 283 0.0 1.6 0.30 1.73 0.79 80 1009.8
20260507134520 19 294 0.0 1.6 0.36 1.70 0.76 80 1010.1
20260507133018 19 281 0.0 1.6 0.33 1.68 0.71 80 1010.3
20260507131514 19 271 0.0 3.2 0.25 1.57 0.64 80 1010.2
20260507130026 19 284 0.0 1.6 0.13 1.42 0.48 80 1010.1
20260507124516 19 314 0.0 3.2 0.05 1.35 0.41 80 1010.2
20260507123011 19 243 0.0 1.6 0.05 1.35 0.41 81 1010.2
20260507121610 19 252 0.0 3.2 0.03 1.32 0.38 80 1010.1
20260507120059 19 293 0.0 1.6 0.00 1.30 0.36 81 1010.2
20260507114600 18 283 0.0 3.2 0.00 1.30 0.36 81 1010.3
20260507113055 18 207 0.0 3.2 0.03 1.30 0.36 81 1010.5
20260507110053 18 288 0.0 3.2 0.05 1.30 0.36 81 1010.6
20260507104554 18 141 0.0 3.2 0.08 1.30 0.36 81 1010.2
20260507103050 18 262 0.0 3.2 0.05 1.27 0.33 81 1010.2
20260507100050 18 290 0.0 3.2 0.08 1.27 0.33 81 1010.2
20260507094550 18 216 0.0 1.6 0.03 1.22 0.28 81 1010.2
20260507093051 18 307 0.0 1.6 0.05 1.22 0.28 81 1010.3
20260507090110 18 196 0.0 0.0 0.05 1.19 0.25 81 1010.3
20260507084555 18 196 0.0 0.0 0.13 1.19 0.25 81 1010.4
20260507083053 18 196 0.0 0.0 0.15 1.17 0.23 81 1010.6
20260507081552 18 193 0.0 0.0 0.13 1.14 0.20 81 1011.0
20260507080049 18 219 0.0 3.2 0.18 1.14 0.20 81 1011.2
20260507074555 18 271 0.0 0.0 0.10 1.07 0.13 81 1010.7
20260507073047 18 274 0.0 1.6 0.05 1.02 0.08 81 1011.5
20260507071547 18 295 0.0 0.0 0.05 1.02 0.08 81 1011.6
20260507070048 18 321 0.0 0.0 0.00 0.97 0.03 81 1011.5
20260507064557 18 215 0.0 0.0 0.00 0.97 0.03 81 1011.7
20260507063044 18 214 0.0 0.0 0.00 0.97 0.03 81 1011.7
20260507061542 18 295 0.0 0.0 0.00 0.97 0.03 81 1012.2
20260507060037 18 306 0.0 0.0 0.03 0.97 0.03 81 1012.2
20260507054540 18 306 0.0 0.0 0.15 0.97 0.03 82 1012.4
20260507053033 18 300 0.0 0.0 0.25 0.97 0.03 82 1012.1
20260507051530 18 345 0.0 1.6 0.30 0.97 0.03 83 1011.3
20260507050034 18 81 0.0 4.8 0.36 0.94 0.94 85 1011.8